Current weather by "City, St" or "zip code"  
 

Current Conditions: Quakertown Airport, PA

Fog


64.0 F

Last Updated on May 21 2022, 4:35 am EDT
Humidity: 100%
Wind Speed: N 0.0 mph
Barometer 29.97 in
Dewpoint: 64.4 F
Visibility: 0.50 mi
Precip: --
Heat Index: NA
Wind Chill: NA
Current conditions at:

Quakertown Airport, PA (KUKT)

Lat: 40.4368 Lon: 75.38016

Local Radar Image active severe weather and emergency alerts image image weather storm and storm spotter reports image weather observation monitoring service image
Local
Radar
Active
Alerts
Storm Reports Obs
Monitoring

Sign-up For Email & Text Message Weather Alert Notification Services



Advertise Here

Observation History for Quakertown Airport, PA


Time Wind
(mph)
Vis
(mi)
Weather Precip (in) Temperature (F) Relative
Humidity
Wind
Chill
(F)
Heat
Index
(F)
Pressure
Air Dwpt altimeter
(in)
sea level
(mb)
Rmks
4:35 am EDT N 0.0 0.50 Fog -- 64.0 64.4 100% NA NA 29.97 M
4:15 am EDT N 0.0 0.50 Fog -- 64.0 64.4 100% NA NA 29.96 M
3:55 am EDT N 0.0 0.50 Fog/Mist -- 64.0 64.4 100% NA NA 29.96 M
3:35 am EDT N 0.0 0.75 Fog/Mist -- 64.0 64.4 100% NA NA 29.96 M
2:55 am EDT N 0.0 0.25 Fog -- 64.0 64.4 100% NA NA 29.94 M
2:35 am EDT N 0.0 0.25 Fog -- 64.0 64.4 100% NA NA 29.94 M
2:15 am EDT N 0.0 0.25 Fog -- 64.0 64.4 100% NA NA 29.93 M
1:55 am EDT N 0.0 0.25 Fog -- 64.0 64.4 100% NA NA 29.93 M
1:15 am EDT N 0.0 0.25 Fog -- 64.0 64.4 100% NA NA 29.94 M
12:55 am EDT N 0.0 0.25 Fog -- 64.0 64.4 100% NA NA 29.94 M
12:35 am EDT N 0.0 0.25 Fog -- 64.0 64.4 100% NA NA 29.94 M
12:15 am EDT N 0.0 0.25 Fog -- 64.0 64.4 100% NA NA 29.93 M
11:55 pm EDT N 0.0 0.25 Fog -- 64.0 64.4 100% NA NA 29.93 M
11:35 pm EDT E 3.5 0.25 Fog -- 64.0 64.4 100% NA NA 29.93 M
10:15 pm EDT N 0.0 6.00 Fog/Mist -- 66.0 66.2 100% NA NA 29.93 M
9:55 pm EDT N 0.0 6.00 Fog/Mist -- 66.0 66.2 100% NA NA 29.93 M
9:35 pm EDT N 0.0 6.00 Fog/Mist -- 66.0 66.2 100% NA NA 29.93 M
9:15 pm EDT NE 3.5 6.00 Fog/Mist -- 66.0 66.2 100% NA NA 29.92 M
8:55 pm EDT N 0.0 9.00 Fair -- 66.0 66.2 100% NA NA 29.91 M
8:35 pm EDT N 0.0 9.00 A Few Clouds -- 66.0 66.2 100% NA NA 29.91 M
8:15 pm EDT N 0.0 9.00 Fair -- 68.0 68.0 100% NA NA 29.90 M
7:55 pm EDT E 3.5 9.00 Fair -- 68.0 68.0 100% NA NA 29.90 M
5:55 pm EDT N 0.0 10.00 Fair -- 70.0 69.8 100% NA NA 29.89 M
5:15 pm EDT N 0.0 10.00 Fair -- 68.0 68.0 100% NA NA 29.90 M

Regional Weather Observation


Allentown, Lehigh Valley International Airport, PA (KABE)

Fog/Mist
65.0 F

Allentown Queen City Municipal Airport, PA (KXLL)

Fog
64.0 F

Quakertown Airport, PA (KUKT)

Fog
64.0 F

Hazleton Municipal Airport, PA (KHZL)

Fog/Mist
64.0 F

Pennridge Airport, PA (KCKZ)

Fog
64.0 F

Reading, Reading Regional Airport, PA (KRDG)

Fog/Mist
67.0 F

Advertise Here


Advertise Here